Regional Weather Roundup
Issued by NWS

Home | Current Version | Previous Version | Text Only | Print | Product List | Glossary On
Versions: 1 2 3 4 5 6 7 8 9 10 11 12 13 14 15 16 17 18 19 20 21 22 23 24 25 26 27
000
ASUS42 KFFC 260103
RWRGA
WEATHER ROUNDUP FOR GEORGIA
NATIONAL WEATHER SERVICE PEACHTREE CITY GA
900 PM EDT MON JUL 25 2016

NOTE: "FAIR" INDICATES FEW OR NO CLOUDS BELOW 12,000 FEET WITH NO
SIGNIFICANT WEATHER AND/OR OBSTRUCTIONS TO VISIBILITY.

* = USE WITH CAUTION. THE STATIONS MARKED WITH AN ASTERISK MAY NOT
REPORT WEATHER SUCH AS PRECIPITATION, FOG, OR THUNDER AND ARE NOT
QUALITY CONTROLLED BY NWS.

THE REMARK "TC" DENOTES TEMPERATURE READING IN DEGREES CELSIUS.

GAZ001>058-260200-
NORTH GEORGIA

CITY           SKY/WX    TMP DP  RH WIND       PRES   REMARKS
ATLANTA        LGT RAIN  79  74  84 NW7       30.03R
ATHENS         CLEAR     87  72  60 S3        30.00R HX  93
CHAMBLEE       CLOUDY    87  68  52 SW15G22   30.03R HX  90
PEACHTREE CITY CLOUDY    85  72  65 CALM      30.02R HX  91
ROME           PTCLDY    90  70  51 N5        29.98R HX  95
WEST ATLANTA   LGT RAIN  77  72  84 W9G20     30.03R
GAINESVILLE    CLOUDY    85  69  58 VRB3      30.05R
CARTERSVILLE   CLOUDY    87  71  58 S8        30.01R HX  93


CITY           SKY/WX    TMP DP  RH WIND       PRES   REMARKS
DALTON*        CLOUDY    82  72  69 CALM      30.00R
LAWRENCEVILLE* PTCLDY    88  72  58 VRB5      30.01R HX  94
MARIETTA       CLOUDY    79  70  73 W10       30.02R
KENNESAW*      MOCLDY    79  70  73 W5        29.98R
CANTON*        CLOUDY    82  61  47 NW7       30.03S
BLAIRSVILLE*     N/A    N/A N/A N/A MISG      30.09R
$$

GAZ059>098-102>109-260200-
CENTRAL GEORGIA

CITY           SKY/WX    TMP DP  RH WIND       PRES   REMARKS
AUGUSTA-BUSH   CLEAR     86  66  51 S5        29.99R
AUGUSTA-DANIEL CLEAR     90  67  46 S6        30.01R HX  93
COLUMBUS       PTCLDY    86  69  56 CALM      29.99R HX  90
MACON          CLEAR     83  71  67 W5        29.99R


CITY           SKY/WX    TMP DP  RH WIND       PRES   REMARKS
LAGRANGE*      CLEAR     83  76  80 W3        30.02R HX  92
MILLEDGEVILLE* CLOUDY    88  73  62 CALM      29.99R HX  96
$$

GAZ099>101-110>166-260200-
SOUTH GEORGIA

CITY           SKY/WX    TMP DP  RH WIND       PRES   REMARKS
SAVANNAH       NOT AVBL
VALDOSTA       CLEAR     83  72  69 SW3       30.02R
ALMA           CLEAR     85  70  60 SE6       30.00R
ST SIMONS      CLEAR     84  71  65 S8        30.03S
ALBANY         CLEAR     86  67  52 S5        30.01R
MOODY AFB      CLEAR     85  72  65 SW8       30.01R HX  91
BRUNSWICK      CLEAR     84  73  70 S6        30.04R HX  91


CITY           SKY/WX    TMP DP  RH WIND       PRES   REMARKS
BAINBRIDGE*    CLEAR     84  72  65 S6        30.00S
MOULTRIE*      CLEAR     82  73  74 SW3       30.02R
VIDALIA*       CLEAR     86  68  54 SE5       30.01R
WAYCROSS*      CLEAR     88  75  63 SE10      30.02R HX  98
DOUGLAS*       CLEAR     84  64  51 CALM      30.02R
$$




USA.gov is the U.S. government's official web portal to all federal, state and local government web resources and services.